TimeCDT,TemperatureF,Dew PointF,Humidity,Sea Level PressureIn,VisibilityMPH,Wind Direction,Wind SpeedMPH,Gust SpeedMPH,PrecipitationIn,Events,Conditions,WindDirDegrees,DateUTC
12:53 AM,42.1,37.9,85,30.04,10.0,Calm,Calm,-,N/A,,Clear,0,2011-10-17 05:53:00
1:53 AM,44.1,39.9,85,30.03,10.0,Calm,Calm,-,N/A,,Clear,0,2011-10-17 06:53:00
2:53 AM,43.0,39.0,86,30.03,10.0,Calm,Calm,-,N/A,,Clear,0,2011-10-17 07:53:00
3:53 AM,42.1,39.0,89,30.03,10.0,Calm,Calm,-,N/A,,Clear,0,2011-10-17 08:53:00
4:53 AM,44.6,42.8,93,30.03,10.0,Calm,Calm,-,N/A,,Clear,0,2011-10-17 09:53:00
5:53 AM,39.9,37.9,93,30.03,10.0,Calm,Calm,-,N/A,,Clear,0,2011-10-17 10:53:00
6:53 AM,42.1,39.9,92,30.01,10.0,NNE,4.6,-,N/A,,Clear,20,2011-10-17 11:53:00
7:53 AM,43.0,41.0,93,30.01,10.0,North,5.8,-,N/A,,Clear,10,2011-10-17 12:53:00
8:53 AM,46.9,42.1,83,30.02,10.0,North,4.6,-,N/A,,Clear,360,2011-10-17 13:53:00
9:53 AM,50.0,41.0,71,30.04,10.0,North,5.8,-,N/A,,Clear,360,2011-10-17 14:53:00
10:53 AM,55.0,33.1,43,30.04,10.0,ENE,8.1,-,N/A,,Clear,60,2011-10-17 15:53:00
11:53 AM,55.9,33.1,42,30.00,10.0,East,15.0,19.6,N/A,,Clear,80,2011-10-17 16:53:00
12:53 PM,52.0,37.9,59,29.99,9.0,NE,10.4,-,0.00,Rain,Light Rain,40,2011-10-17 17:53:00
1:53 PM,52.0,37.0,57,29.97,10.0,East,9.2,-,0.00,Rain,Light Rain,80,2011-10-17 18:53:00
2:53 PM,51.1,36.0,56,29.97,10.0,East,9.2,-,0.00,,Overcast,100,2011-10-17 19:53:00
3:53 PM,48.0,39.0,71,29.98,10.0,East,10.4,-,0.02,,Overcast,100,2011-10-17 20:53:00
4:53 PM,46.9,39.9,77,30.01,10.0,SE,3.5,-,0.00,,Overcast,140,2011-10-17 21:53:00
5:53 PM,46.9,39.9,77,30.02,10.0,Calm,Calm,-,0.00,Rain,Light Rain,0,2011-10-17 22:53:00
6:53 PM,46.4,41.0,81,30.03,10.0,South,3.5,-,N/A,,Overcast,170,2011-10-17 23:53:00
7:53 PM,46.0,42.1,86,30.05,10.0,Calm,Calm,-,N/A,,Overcast,0,2011-10-18 00:53:00
8:53 PM,46.0,42.1,86,30.04,10.0,Calm,Calm,-,N/A,,Partly Cloudy,0,2011-10-18 01:53:00
9:53 PM,46.9,39.9,77,30.01,10.0,Calm,Calm,-,N/A,,Clear,0,2011-10-18 02:53:00
10:53 PM,46.9,41.0,80,30.03,10.0,North,4.6,-,N/A,,Mostly Cloudy,360,2011-10-18 03:53:00
11:53 PM,48.9,42.1,77,30.02,10.0,NNW,6.9,-,N/A,,Overcast,340,2011-10-18 04:53:00